| time (UTC) | temp F | wind direction | speed MPH | gust MPH | rain 1hr in | rain 24hr in | rain mn in | humidity % | barometer mb |
| 20260508233537 | 80 | 0 | 0.0 | 4.0 | 0.00 | 0.00 | 0.00 | 77 | 1012.4 |
| 20260508233051 | 80 | 0 | 1.0 | 7.0 | 0.00 | 0.00 | 0.00 | 77 | 1012.4 |
| 20260508232540 | 80 | 0 | 2.0 | 7.0 | 0.00 | 0.00 | 0.00 | 77 | 1012.5 |
| 20260508232036 | 80 | 0 | 1.0 | 4.0 | 0.00 | 0.00 | 0.00 | 76 | 1012.4 |
| 20260508231552 | 80 | 0 | 2.0 | 5.0 | 0.00 | 0.00 | 0.00 | 77 | 1012.4 |
| 20260508231037 | 80 | 74 | 0.0 | 7.0 | 0.00 | 0.00 | 0.00 | 77 | 1012.4 |
| 20260508230536 | 80 | 98 | 3.0 | 7.0 | 0.00 | 0.00 | 0.00 | 76 | 1012.4 |
| 20260508230053 | 80 | 88 | 2.0 | 6.0 | 0.00 | 0.00 | 0.00 | 76 | 1012.4 |
| 20260508225536 | 80 | 76 | 2.0 | 7.0 | 0.00 | 0.00 | 0.00 | 77 | 1012.4 |
| 20260508225037 | 80 | 81 | 3.0 | 7.0 | 0.00 | 0.00 | 0.00 | 78 | 1012.5 |
| 20260508224557 | 80 | 0 | 2.0 | 7.0 | 0.00 | 0.00 | 0.00 | 77 | 1012.5 |
| 20260508224036 | 80 | 84 | 2.0 | 6.0 | 0.00 | 0.00 | 0.00 | 77 | 1012.6 |
| 20260508223536 | 79 | 0 | 1.0 | 5.0 | 0.00 | 0.00 | 0.00 | 77 | 1012.7 |
| 20260508223049 | 79 | 0 | 2.0 | 5.0 | 0.00 | 0.00 | 0.00 | 77 | 1012.6 |
| 20260508222536 | 79 | 81 | 1.0 | 5.0 | 0.00 | 0.00 | 0.00 | 77 | 1012.7 |
| 20260508222038 | 79 | 0 | 0.0 | 5.0 | 0.00 | 0.00 | 0.00 | 77 | 1012.8 |
| 20260508221542 | 79 | 0 | 1.0 | 5.0 | 0.00 | 0.00 | 0.00 | 76 | 1012.9 |
| 20260508221037 | 80 | 0 | 0.0 | 6.0 | 0.00 | 0.00 | 0.00 | 76 | 1012.8 |
| 20260508220536 | 80 | 34 | 2.0 | 6.0 | 0.00 | 0.00 | 0.00 | 76 | 1013.1 |
| 20260508220054 | 80 | 41 | 2.0 | 6.0 | 0.00 | 0.00 | 0.00 | 76 | 1013.1 |
| 20260508215540 | 80 | 14 | 1.0 | 6.0 | 0.00 | 0.00 | 0.00 | 76 | 1013.1 |
| 20260508215038 | 79 | 86 | 0.0 | 8.0 | 0.00 | 0.00 | 0.00 | 77 | 1013.1 |
| 20260508214550 | 79 | 123 | 3.0 | 8.0 | 0.00 | 0.00 | 0.00 | 76 | 1013.1 |
| 20260508214035 | 79 | 62 | 1.0 | 6.0 | 0.00 | 0.00 | 0.00 | 77 | 1013.2 |
| 20260508213536 | 79 | 0 | 2.0 | 4.0 | 0.00 | 0.00 | 0.00 | 77 | 1013.2 |
| 20260508213045 | 79 | 101 | 0.0 | 4.0 | 0.00 | 0.00 | 0.00 | 77 | 1013.3 |
| 20260508212536 | 79 | 0 | 1.0 | 5.0 | 0.00 | 0.00 | 0.00 | 77 | 1013.4 |
| 20260508212035 | 79 | 0 | 0.0 | 5.0 | 0.00 | 0.00 | 0.00 | 76 | 1013.4 |
| 20260508211544 | 79 | 91 | 2.0 | 5.0 | 0.00 | 0.00 | 0.00 | 76 | 1013.3 |
| 20260508211038 | 79 | 56 | 0.0 | 7.0 | 0.00 | 0.00 | 0.00 | 75 | 1013.5 |
| 20260508210536 | 80 | 0 | 1.0 | 9.0 | 0.00 | 0.00 | 0.00 | 74 | 1013.5 |
| 20260508210051 | 80 | 71 | 4.0 | 9.0 | 0.00 | 0.00 | 0.00 | 73 | 1013.6 |
| 20260508205536 | 81 | 69 | 3.0 | 9.0 | 0.00 | 0.00 | 0.00 | 73 | 1013.6 |
| 20260508205036 | 81 | 74 | 2.0 | 8.0 | 0.00 | 0.00 | 0.00 | 73 | 1013.6 |
| 20260508204550 | 81 | 115 | 2.0 | 8.0 | 0.00 | 0.00 | 0.00 | 73 | 1013.8 |
| 20260508204036 | 81 | 91 | 2.0 | 9.0 | 0.00 | 0.00 | 0.00 | 72 | 1013.9 |
| 20260508203536 | 82 | 0 | 2.0 | 9.0 | 0.00 | 0.00 | 0.00 | 70 | 1014.0 |
| 20260508203052 | 82 | 79 | 2.0 | 9.0 | 0.00 | 0.00 | 0.00 | 70 | 1013.8 |
| 20260508202535 | 82 | 78 | 5.0 | 9.0 | 0.00 | 0.00 | 0.00 | 71 | 1013.9 |
| 20260508202036 | 81 | 67 | 2.0 | 8.0 | 0.00 | 0.00 | 0.00 | 73 | 1014.0 |
| 20260508201550 | 80 | 81 | 3.0 | 11.0 | 0.00 | 0.00 | 0.00 | 74 | 1013.9 |
| 20260508201036 | 79 | 67 | 3.0 | 11.0 | 0.00 | 0.00 | 0.00 | 75 | 1013.9 |
| 20260508200536 | 79 | 59 | 4.0 | 9.0 | 0.00 | 0.00 | 0.00 | 74 | 1014.0 |
| 20260508200059 | 79 | 76 | 4.0 | 8.0 | 0.00 | 0.00 | 0.00 | 74 | 1014.0 |
| 20260508195535 | 79 | 90 | 2.0 | 8.0 | 0.00 | 0.00 | 0.00 | 74 | 1014.0 |
| 20260508195036 | 79 | 65 | 2.0 | 7.0 | 0.00 | 0.00 | 0.00 | 74 | 1014.1 |
| 20260508194550 | 79 | 83 | 2.0 | 8.0 | 0.00 | 0.00 | 0.00 | 73 | 1014.2 |
| 20260508194037 | 79 | 80 | 1.0 | 8.0 | 0.00 | 0.00 | 0.00 | 74 | 1014.2 |
| 20260508193536 | 79 | 76 | 2.0 | 9.0 | 0.00 | 0.00 | 0.00 | 73 | 1014.3 |
| 20260508193058 | 79 | 82 | 3.0 | 9.0 | 0.00 | 0.00 | 0.00 | 73 | 1014.4 |
| 20260508192538 | 79 | 0 | 2.0 | 10.0 | 0.00 | 0.00 | 0.00 | 73 | 1014.4 |
| 20260508192036 | 79 | 80 | 4.0 | 10.0 | 0.00 | 0.00 | 0.00 | 73 | 1014.4 |
| 20260508191540 | 79 | 0 | 3.0 | 8.0 | 0.00 | 0.00 | 0.00 | 72 | 1014.5 |
| 20260508191036 | 79 | 0 | 3.0 | 7.0 | 0.00 | 0.00 | 0.00 | 73 | 1014.5 |
| 20260508190538 | 78 | 82 | 2.0 | 6.0 | 0.00 | 0.00 | 0.00 | 73 | 1014.6 |
| 20260508190049 | 78 | 0 | 2.0 | 6.0 | 0.00 | 0.00 | 0.00 | 72 | 1014.9 |
| 20260508185538 | 78 | 96 | 0.0 | 7.0 | 0.00 | 0.00 | 0.00 | 73 | 1015.0 |
| 20260508185036 | 77 | 72 | 1.0 | 7.0 | 0.00 | 0.00 | 0.00 | 72 | 1015.1 |
| 20260508184548 | 77 | 84 | 1.0 | 6.0 | 0.00 | 0.00 | 0.00 | 72 | 1015.1 |
| 20260508184035 | 77 | 86 | 2.0 | 6.0 | 0.00 | 0.00 | 0.00 | 72 | 1015.1 |
| 20260508183536 | 77 | 82 | 0.0 | 6.0 | 0.00 | 0.00 | 0.00 | 73 | 1015.2 |
| 20260508183049 | 77 | 100 | 0.0 | 5.0 | 0.00 | 0.00 | 0.00 | 73 | 1015.2 |
| 20260508182537 | 76 | 0 | 1.0 | 3.0 | 0.00 | 0.00 | 0.00 | 73 | 1015.3 |
| 20260508182036 | 76 | 73 | 0.0 | 4.0 | 0.00 | 0.00 | 0.00 | 73 | 1015.4 |
| 20260508181550 | 76 | 94 | 1.0 | 4.0 | 0.00 | 0.00 | 0.00 | 74 | 1015.4 |
| 20260508181036 | 76 | 90 | 0.0 | 4.0 | 0.00 | 0.00 | 0.00 | 74 | 1015.5 |
| 20260508180536 | 75 | 65 | 0.0 | 2.0 | 0.00 | 0.00 | 0.00 | 74 | 1015.6 |
| 20260508180051 | 75 | 0 | 0.0 | 2.0 | 0.00 | 0.00 | 0.00 | 75 | 1015.6 |
| 20260508175536 | 74 | 0 | 0.0 | 2.0 | 0.00 | 0.00 | 0.00 | 75 | 1015.7 |
| 20260508175037 | 74 | 0 | 0.0 | 2.0 | 0.00 | 0.00 | 0.00 | 75 | 1015.8 |
| 20260508174558 | 74 | 0 | 0.0 | 1.0 | 0.00 | 0.00 | 0.00 | 74 | 1015.8 |
| 20260508174036 | 74 | 0 | 0.0 | 3.0 | 0.00 | 0.00 | 0.00 | 76 | 1015.9 |
| 20260508173537 | 73 | 0 | 0.0 | 3.0 | 0.00 | 0.00 | 0.00 | 76 | 1015.9 |
| 20260508173043 | 73 | 0 | 0.0 | 3.0 | 0.00 | 0.00 | 0.00 | 76 | 1015.8 |
| 20260508172536 | 72 | 0 | 0.0 | 2.0 | 0.00 | 0.00 | 0.00 | 77 | 1015.6 |
| 20260508172036 | 72 | 0 | 0.0 | 2.0 | 0.00 | 0.00 | 0.00 | 77 | 1015.8 |
| 20260508171556 | 72 | 0 | 0.0 | 2.0 | 0.00 | 0.00 | 0.00 | 76 | 1015.9 |
| 20260508171038 | 72 | 0 | 0.0 | 2.0 | 0.00 | 0.00 | 0.00 | 76 | 1016.0 |
| 20260508170536 | 72 | 69 | 0.0 | 2.0 | 0.00 | 0.00 | 0.00 | 77 | 1015.9 |
| 20260508170040 | 71 | 63 | 0.0 | 3.0 | 0.00 | 0.00 | 0.00 | 76 | 1016.0 |
| 20260508165536 | 71 | 0 | 0.0 | 3.0 | 0.00 | 0.00 | 0.00 | 76 | 1016.2 |
| 20260508165036 | 71 | 80 | 0.0 | 2.0 | 0.00 | 0.00 | 0.00 | 77 | 1016.1 |
| 20260508164550 | 71 | 0 | 0.0 | 3.0 | 0.00 | 0.00 | 0.00 | 77 | 1016.3 |
| 20260508164036 | 70 | 0 | 0.0 | 4.0 | 0.00 | 0.00 | 0.00 | 78 | 1016.3 |
| 20260508163539 | 70 | 0 | 0.0 | 4.0 | 0.00 | 0.00 | 0.00 | 77 | 1016.2 |
| 20260508163110 | 70 | 95 | 0.0 | 3.0 | 0.00 | 0.00 | 0.00 | 79 | 1016.3 |
| 20260508162536 | 69 | 77 | 0.0 | 3.0 | 0.00 | 0.00 | 0.00 | 79 | 1016.4 |
| 20260508162036 | 69 | 0 | 0.0 | 5.0 | 0.00 | 0.00 | 0.00 | 79 | 1016.4 |
| 20260508161541 | 69 | 0 | 0.0 | 5.0 | 0.00 | 0.00 | 0.00 | 78 | 1016.5 |
| 20260508161034 | 69 | 351 | 0.0 | 6.0 | 0.00 | 0.00 | 0.00 | 78 | 1016.2 |
| 20260508160534 | 69 | 51 | 1.0 | 6.0 | 0.00 | 0.00 | 0.00 | 78 | 1016.5 |
| 20260508160043 | 68 | 314 | 0.0 | 5.0 | 0.00 | 0.00 | 0.00 | 79 | 1016.5 |
| 20260508155534 | 68 | 0 | 0.0 | 5.0 | 0.00 | 0.00 | 0.00 | 79 | 1016.5 |
| 20260508155037 | 68 | 0 | 0.0 | 5.0 | 0.00 | 0.00 | 0.00 | 79 | 1016.6 |
| 20260508154545 | 68 | 0 | 1.0 | 6.0 | 0.00 | 0.00 | 0.00 | 80 | 1016.5 |
| 20260508154034 | 68 | 52 | 1.0 | 6.0 | 0.00 | 0.00 | 0.00 | 80 | 1016.7 |
| 20260508153534 | 67 | 59 | 1.0 | 6.0 | 0.00 | 0.00 | 0.00 | 80 | 1016.7 |
| 20260508153039 | 67 | 28 | 1.0 | 4.0 | 0.00 | 0.00 | 0.00 | 80 | 1016.8 |
| 20260508152535 | 67 | 85 | 1.0 | 4.0 | 0.00 | 0.00 | 0.00 | 80 | 1017.1 |
| 20260508152037 | 67 | 0 | 0.0 | 3.0 | 0.00 | 0.00 | 0.00 | 80 | 1017.2 |
| 20260508151545 | 67 | 0 | 0.0 | 3.0 | 0.00 | 0.00 | 0.00 | 80 | 1017.0 |
| 20260508151034 | 66 | 0 | 0.0 | 9.0 | 0.00 | 0.00 | 0.00 | 81 | 1017.1 |
| 20260508150534 | 66 | 80 | 0.0 | 9.0 | 0.00 | 0.00 | 0.00 | 81 | 1017.1 |
| 20260508150042 | 66 | 26 | 0.0 | 8.0 | 0.00 | 0.00 | 0.00 | 81 | 1017.2 |
| 20260508145535 | 66 | 0 | 0.0 | 8.0 | 0.00 | 0.00 | 0.00 | 80 | 1017.4 |
| 20260508145036 | 66 | 340 | 2.0 | 8.0 | 0.00 | 0.00 | 0.00 | 80 | 1017.4 |
| 20260508144549 | 66 | 0 | 2.0 | 8.0 | 0.00 | 0.00 | 0.00 | 80 | 1017.2 |
| 20260508144034 | 66 | 0 | 0.0 | 8.0 | 0.00 | 0.00 | 0.00 | 81 | 1017.2 |
| 20260508143535 | 66 | 22 | 2.0 | 6.0 | 0.00 | 0.00 | 0.00 | 81 | 1017.1 |
| 20260508143054 | 65 | 34 | 1.0 | 7.0 | 0.00 | 0.00 | 0.00 | 81 | 1017.1 |
| 20260508142534 | 65 | 323 | 2.0 | 7.0 | 0.00 | 0.00 | 0.00 | 81 | 1017.3 |
| 20260508142034 | 65 | 0 | 0.0 | 11.0 | 0.00 | 0.00 | 0.00 | 81 | 1017.2 |
| 20260508141547 | 65 | 107 | 2.0 | 11.0 | 0.00 | 0.00 | 0.00 | 82 | 1017.1 |
| 20260508141033 | 65 | 24 | 2.0 | 6.0 | 0.00 | 0.00 | 0.00 | 81 | 1017.1 |
| 20260508140534 | 65 | 360 | 2.0 | 8.0 | 0.00 | 0.00 | 0.00 | 81 | 1017.2 |
| 20260508140045 | 65 | 330 | 1.0 | 8.0 | 0.00 | 0.00 | 0.00 | 82 | 1017.3 |
| 20260508135535 | 64 | 352 | 1.0 | 8.0 | 0.00 | 0.00 | 0.00 | 82 | 1017.0 |
| 20260508135037 | 64 | 30 | 1.0 | 8.0 | 0.00 | 0.00 | 0.00 | 82 | 1016.7 |
| 20260508134544 | 64 | 302 | 0.0 | 11.0 | 0.00 | 0.00 | 0.00 | 82 | 1016.9 |
| 20260508134034 | 64 | 0 | 1.0 | 11.0 | 0.00 | 0.00 | 0.00 | 82 | 1017.1 |
| 20260508133539 | 64 | 340 | 0.0 | 8.0 | 0.00 | 0.00 | 0.00 | 82 | 1017.1 |
| 20260508133050 | 64 | 23 | 2.0 | 8.0 | 0.00 | 0.00 | 0.00 | 82 | 1017.4 |
| 20260508132534 | 64 | 5 | 0.0 | 3.0 | 0.00 | 0.00 | 0.00 | 83 | 1017.5 |
| 20260508132034 | 64 | 0 | 0.0 | 6.0 | 0.00 | 0.00 | 0.00 | 83 | 1017.2 |
| 20260508131548 | 64 | 0 | 1.0 | 6.0 | 0.00 | 0.00 | 0.00 | 83 | 1016.9 |
| 20260508131034 | 64 | 0 | 0.0 | 5.0 | 0.00 | 0.00 | 0.00 | 83 | 1017.2 |
| 20260508130535 | 63 | 9 | 0.0 | 5.0 | 0.00 | 0.00 | 0.00 | 84 | 1017.3 |
| 20260508130051 | 63 | 17 | 0.0 | 5.0 | 0.00 | 0.00 | 0.00 | 84 | 1017.3 |
| 20260508125537 | 63 | 346 | 0.0 | 6.0 | 0.00 | 0.00 | 0.00 | 84 | 1017.2 |
| 20260508125037 | 63 | 330 | 0.0 | 8.0 | 0.00 | 0.00 | 0.00 | 84 | 1017.2 |
| 20260508124540 | 63 | 0 | 1.0 | 8.0 | 0.00 | 0.00 | 0.00 | 83 | 1017.2 |
| 20260508124035 | 63 | 297 | 1.0 | 8.0 | 0.00 | 0.00 | 0.00 | 83 | 1017.0 |
| 20260508123535 | 63 | 0 | 1.0 | 8.0 | 0.00 | 0.00 | 0.00 | 83 | 1017.0 |
| 20260508123052 | 63 | 0 | 0.0 | 9.0 | 0.00 | 0.00 | 0.00 | 83 | 1017.2 |
| 20260508122534 | 63 | 0 | 0.0 | 9.0 | 0.00 | 0.00 | 0.00 | 83 | 1017.3 |
| 20260508122034 | 63 | 38 | 1.0 | 8.0 | 0.00 | 0.00 | 0.00 | 84 | 1017.6 |
| 20260508121541 | 63 | 0 | 1.0 | 7.0 | 0.00 | 0.00 | 0.00 | 84 | 1017.8 |
| 20260508121034 | 63 | 0 | 0.0 | 4.0 | 0.00 | 0.00 | 0.00 | 84 | 1017.7 |
| 20260508120535 | 63 | 0 | 0.0 | 4.0 | 0.00 | 0.00 | 0.00 | 84 | 1017.5 |
| 20260508120050 | 63 | 319 | 0.0 | 4.0 | 0.00 | 0.00 | 0.00 | 84 | 1017.3 |
| 20260508115535 | 63 | 0 | 0.0 | 4.0 | 0.00 | 0.00 | 0.00 | 83 | 1017.2 |
| 20260508115034 | 63 | 0 | 0.0 | 3.0 | 0.00 | 0.00 | 0.00 | 83 | 1017.2 |
| 20260508114543 | 63 | 0 | 0.0 | 5.0 | 0.00 | 0.00 | 0.00 | 84 | 1016.8 |
| 20260508114034 | 63 | 0 | 0.0 | 5.0 | 0.00 | 0.00 | 0.00 | 83 | 1016.7 |
| 20260508113538 | 63 | 17 | 0.0 | 4.0 | 0.00 | 0.00 | 0.00 | 83 | 1016.8 |
| 20260508113050 | 63 | 55 | 0.0 | 5.0 | 0.00 | 0.00 | 0.00 | 83 | 1017.2 |
| 20260508112535 | 64 | 342 | 0.0 | 5.0 | 0.00 | 0.00 | 0.00 | 82 | 1017.3 |
| 20260508112034 | 64 | 0 | 0.0 | 4.0 | 0.00 | 0.00 | 0.00 | 82 | 1017.5 |
| 20260508111551 | 64 | 0 | 0.0 | 4.0 | 0.00 | 0.00 | 0.00 | 82 | 1017.7 |
| 20260508111034 | 64 | 35 | 0.0 | 4.0 | 0.00 | 0.00 | 0.00 | 82 | 1017.6 |
| 20260508110534 | 64 | 36 | 0.0 | 1.0 | 0.00 | 0.00 | 0.00 | 82 | 1017.7 |
| 20260508110105 | 64 | 0 | 0.0 | 2.0 | 0.00 | 0.00 | 0.00 | 82 | 1017.9 |
| 20260508105535 | 64 | 0 | 0.0 | 2.0 | 0.00 | 0.00 | 0.00 | 81 | 1017.8 |
| 20260508105034 | 64 | 0 | 0.0 | 3.0 | 0.00 | 0.00 | 0.00 | 81 | 1017.5 |
| 20260508104546 | 64 | 0 | 0.0 | 3.0 | 0.00 | 0.00 | 0.00 | 81 | 1017.1 |
| 20260508104033 | 64 | 0 | 0.0 | 6.0 | 0.00 | 0.00 | 0.00 | 80 | 1016.9 |
| 20260508103535 | 64 | 0 | 0.0 | 7.0 | 0.00 | 0.00 | 0.00 | 79 | 1016.8 |
| 20260508103043 | 64 | 28 | 1.0 | 7.0 | 0.00 | 0.00 | 0.00 | 78 | 1016.8 |
| 20260508102533 | 64 | 0 | 0.0 | 5.0 | 0.00 | 0.00 | 0.00 | 78 | 1017.1 |
| 20260508102034 | 64 | 70 | 0.0 | 6.0 | 0.00 | 0.00 | 0.00 | 78 | 1017.2 |
| 20260508101548 | 64 | 78 | 2.0 | 6.0 | 0.00 | 0.00 | 0.00 | 77 | 1016.9 |
| 20260508101034 | 64 | 61 | 2.0 | 5.0 | 0.00 | 0.00 | 0.00 | 78 | 1016.7 |
| 20260508100535 | 64 | 96 | 1.0 | 5.0 | 0.00 | 0.00 | 0.00 | 77 | 1016.9 |
| 20260508100047 | 64 | 26 | 1.0 | 5.0 | 0.00 | 0.00 | 0.00 | 77 | 1017.3 |
| 20260508095536 | 64 | 342 | 0.0 | 6.0 | 0.00 | 0.00 | 0.00 | 77 | 1017.6 |
| 20260508095036 | 64 | 352 | 1.0 | 6.0 | 0.00 | 0.00 | 0.00 | 77 | 1017.8 |
| 20260508094552 | 64 | 0 | 2.0 | 7.0 | 0.00 | 0.00 | 0.00 | 77 | 1017.8 |
| 20260508094036 | 64 | 0 | 1.0 | 7.0 | 0.00 | 0.00 | 0.00 | 77 | 1017.6 |
| 20260508093537 | 64 | 0 | 0.0 | 5.0 | 0.00 | 0.00 | 0.00 | 77 | 1017.5 |
| 20260508093053 | 64 | 0 | 0.0 | 7.0 | 0.00 | 0.00 | 0.00 | 77 | 1017.4 |
| 20260508092536 | 64 | 0 | 1.0 | 8.0 | 0.00 | 0.00 | 0.00 | 77 | 1017.3 |
| 20260508092036 | 64 | 5 | 0.0 | 8.0 | 0.00 | 0.00 | 0.00 | 77 | 1017.1 |
| 20260508091549 | 64 | 65 | 1.0 | 8.0 | 0.00 | 0.00 | 0.00 | 77 | 1017.2 |
| 20260508091037 | 64 | 65 | 0.0 | 8.0 | 0.00 | 0.00 | 0.00 | 76 | 1017.5 |
| 20260508090536 | 64 | 0 | 0.0 | 5.0 | 0.00 | 0.00 | 0.00 | 76 | 1017.4 |
| 20260508090104 | 64 | 0 | 0.0 | 5.0 | 0.00 | 0.00 | 0.00 | 76 | 1017.5 |
| 20260508085536 | 64 | 326 | 0.0 | 4.0 | 0.00 | 0.00 | 0.00 | 76 | 1017.9 |
| 20260508085035 | 64 | 333 | 0.0 | 4.0 | 0.00 | 0.00 | 0.00 | 75 | 1017.9 |
| 20260508084548 | 64 | 0 | 0.0 | 6.0 | 0.00 | 0.00 | 0.00 | 76 | 1017.8 |
| 20260508084036 | 64 | 0 | 0.0 | 6.0 | 0.00 | 0.00 | 0.00 | 76 | 1017.5 |
| 20260508083538 | 64 | 336 | 1.0 | 6.0 | 0.00 | 0.00 | 0.00 | 76 | 1017.4 |
| 20260508083042 | 64 | 0 | 1.0 | 9.0 | 0.00 | 0.00 | 0.00 | 76 | 1017.4 |
| 20260508082536 | 64 | 360 | 3.0 | 9.0 | 0.00 | 0.00 | 0.00 | 76 | 1017.3 |
| 20260508082036 | 64 | 347 | 0.0 | 9.0 | 0.00 | 0.00 | 0.00 | 76 | 1017.1 |
| 20260508081548 | 64 | 0 | 1.0 | 8.0 | 0.00 | 0.00 | 0.00 | 75 | 1017.2 |
| 20260508081037 | 64 | 5 | 2.0 | 8.0 | 0.00 | 0.00 | 0.00 | 76 | 1017.3 |
| 20260508080536 | 64 | 316 | 0.0 | 9.0 | 0.00 | 0.00 | 0.00 | 76 | 1017.3 |
| 20260508080053 | 64 | 38 | 0.0 | 9.0 | 0.00 | 0.00 | 0.00 | 76 | 1017.3 |
| 20260508075536 | 65 | 323 | 2.0 | 8.0 | 0.00 | 0.00 | 0.00 | 75 | 1017.5 |
| 20260508075042 | 65 | 22 | 1.0 | 8.0 | 0.00 | 0.00 | 0.00 | 75 | 1017.7 |
| 20260508074543 | 65 | 321 | 1.0 | 5.0 | 0.00 | 0.00 | 0.00 | 75 | 1017.8 |
| 20260508074037 | 65 | 0 | 0.0 | 3.0 | 0.00 | 0.00 | 0.00 | 75 | 1017.9 |
| 20260508073536 | 65 | 309 | 0.0 | 3.0 | 0.00 | 0.00 | 0.00 | 75 | 1017.9 |
| 20260508073053 | 65 | 0 | 0.0 | 2.0 | 0.00 | 0.00 | 0.00 | 75 | 1018.0 |
| 20260508072539 | 65 | 0 | 0.0 | 3.0 | 0.00 | 0.00 | 0.00 | 75 | 1018.0 |
| 20260508072036 | 65 | 0 | 0.0 | 3.0 | 0.00 | 0.00 | 0.00 | 75 | 1017.8 |
| 20260508071549 | 65 | 0 | 0.0 | 0.0 | 0.00 | 0.00 | 0.00 | 74 | 1018.0 |
| 20260508071036 | 65 | 0 | 0.0 | 4.0 | 0.00 | 0.00 | 0.00 | 75 | 1018.2 |
| 20260508070539 | 65 | 0 | 0.0 | 7.0 | 0.00 | 0.00 | 0.00 | 75 | 1018.2 |
| 20260508070050 | 65 | 293 | 0.0 | 7.0 | 0.00 | 0.00 | 0.00 | 74 | 1018.2 |
| 20260508065550 | 65 | 69 | 3.0 | 6.0 | 0.00 | 0.00 | 0.00 | 74 | 1017.5 |
| 20260508065035 | 65 | 0 | 1.0 | 4.0 | 0.00 | 0.00 | 0.00 | 74 | 1017.8 |
| 20260508064542 | 65 | 0 | 0.0 | 4.0 | 0.00 | 0.00 | 0.00 | 74 | 1018.0 |
| 20260508064037 | 65 | 0 | 0.0 | 7.0 | 0.00 | 0.00 | 0.00 | 74 | 1018.0 |
| 20260508063538 | 65 | 78 | 1.0 | 7.0 | 0.00 | 0.00 | 0.00 | 74 | 1018.0 |
| 20260508063041 | 65 | 100 | 0.0 | 4.0 | 0.00 | 0.00 | 0.00 | 74 | 1018.0 |
| 20260508062536 | 65 | 0 | 0.0 | 7.0 | 0.00 | 0.00 | 0.00 | 74 | 1017.9 |
| 20260508062036 | 65 | 0 | 1.0 | 8.0 | 0.00 | 0.00 | 0.00 | 74 | 1017.8 |
| 20260508061541 | 65 | 53 | 1.0 | 8.0 | 0.00 | 0.00 | 0.00 | 74 | 1017.5 |
| 20260508061036 | 65 | 44 | 1.0 | 8.0 | 0.00 | 0.00 | 0.00 | 74 | 1017.7 |
| 20260508060537 | 65 | 34 | 1.0 | 6.0 | 0.00 | 0.00 | 0.00 | 74 | 1017.8 |
| 20260508060049 | 65 | 30 | 1.0 | 5.0 | 0.00 | 0.00 | 0.00 | 74 | 1018.0 |
| 20260508055536 | 65 | 0 | 1.0 | 5.0 | 0.00 | 0.00 | 0.00 | 74 | 1018.5 |
| 20260508055036 | 65 | 11 | 1.0 | 10.0 | 0.00 | 0.00 | 0.00 | 74 | 1018.8 |
| 20260508054604 | 65 | 0 | 1.0 | 10.0 | 0.00 | 0.00 | 0.00 | 74 | 1018.9 |
| 20260508054035 | 65 | 44 | 0.0 | 5.0 | 0.00 | 0.00 | 0.00 | 74 | 1019.0 |
| 20260508053538 | 65 | 352 | 1.0 | 5.0 | 0.00 | 0.00 | 0.00 | 74 | 1019.1 |
| 20260508053045 | 65 | 0 | 0.0 | 7.0 | 0.00 | 0.00 | 0.00 | 74 | 1019.3 |
| 20260508052536 | 65 | 311 | 1.0 | 7.0 | 0.00 | 0.00 | 0.00 | 74 | 1019.3 |
| 20260508052038 | 66 | 0 | 0.0 | 6.0 | 0.00 | 0.00 | 0.00 | 74 | 1019.3 |
| 20260508051542 | 66 | 279 | 0.0 | 3.0 | 0.00 | 0.00 | 0.00 | 73 | 1019.4 |
| 20260508051036 | 66 | 283 | 0.0 | 2.0 | 0.00 | 0.00 | 0.00 | 74 | 1019.4 |
| 20260508050537 | 65 | 0 | 0.0 | 1.0 | 0.00 | 0.00 | 0.00 | 74 | 1019.1 |
| 20260508050050 | 65 | 0 | 0.0 | 5.0 | 0.00 | 0.00 | 0.00 | 74 | 1018.4 |
| 20260508045536 | 65 | 0 | 0.0 | 6.0 | 0.00 | 0.00 | 0.00 | 73 | 1018.0 |
| 20260508045036 | 65 | 59 | 2.0 | 9.0 | 0.00 | 0.00 | 0.00 | 73 | 1017.8 |
| 20260508044557 | 65 | 0 | 2.0 | 9.0 | 0.00 | 0.00 | 0.00 | 73 | 1017.5 |
| 20260508044037 | 65 | 0 | 1.0 | 9.0 | 0.00 | 0.00 | 0.00 | 73 | 1017.7 |
| 20260508043536 | 65 | 352 | 1.0 | 10.0 | 0.00 | 0.00 | 0.00 | 73 | 1017.6 |
| 20260508043048 | 65 | 47 | 2.0 | 10.0 | 0.00 | 0.00 | 0.00 | 73 | 1017.5 |
| 20260508042538 | 66 | 42 | 2.0 | 10.0 | 0.00 | 0.00 | 0.00 | 73 | 1017.5 |
| 20260508042036 | 66 | 26 | 2.0 | 10.0 | 0.00 | 0.00 | 0.00 | 73 | 1017.8 |
| 20260508041556 | 66 | 46 | 2.0 | 10.0 | 0.00 | 0.00 | 0.00 | 73 | 1017.9 |
| 20260508041036 | 66 | 0 | 1.0 | 9.0 | 0.00 | 0.00 | 0.00 | 73 | 1017.9 |
| 20260508040536 | 66 | 0 | 1.0 | 9.0 | 0.00 | 0.00 | 0.00 | 73 | 1017.8 |
| 20260508040056 | 66 | 43 | 1.0 | 12.0 | 0.00 | 0.00 | 0.00 | 73 | 1017.9 |
| 20260508035536 | 66 | 12 | 1.0 | 12.0 | 0.00 | 0.00 | 0.00 | 73 | 1018.2 |
| 20260508035036 | 66 | 341 | 1.0 | 11.0 | 0.00 | 0.00 | 0.00 | 72 | 1018.5 |
| 20260508034555 | 66 | 9 | 2.0 | 11.0 | 0.00 | 0.00 | 0.00 | 73 | 1018.8 |
| 20260508034058 | 66 | 0 | 2.0 | 8.0 | 0.00 | 0.00 | 0.00 | 73 | 1018.7 |
| 20260508033533 | 66 | 329 | 1.0 | 8.0 | 0.00 | 0.00 | 0.00 | 73 | 1018.9 |
| 20260508033044 | 66 | 41 | 1.0 | 7.0 | 0.00 | 0.00 | 0.00 | 74 | 1019.0 |
| 20260508032538 | 66 | 302 | 2.0 | 5.0 | 0.00 | 0.00 | 0.00 | 74 | 1019.0 |
| 20260508032035 | 66 | 22 | 1.0 | 7.0 | 0.00 | 0.00 | 0.00 | 75 | 1018.7 |
| 20260508031558 | 66 | 0 | 0.0 | 7.0 | 0.00 | 0.00 | 0.00 | 75 | 1018.8 |
| 20260508031034 | 66 | 0 | 1.0 | 7.0 | 0.00 | 0.00 | 0.00 | 75 | 1018.7 |
| 20260508030534 | 66 | 352 | 0.0 | 3.0 | 0.00 | 0.00 | 0.00 | 76 | 1018.6 |
| 20260508030106 | 66 | 308 | 0.0 | 3.0 | 0.00 | 0.00 | 0.00 | 75 | 1018.7 |
| 20260508025534 | 66 | 0 | 0.0 | 2.0 | 0.00 | 0.00 | 0.00 | 75 | 1018.4 |
| 20260508025034 | 66 | 0 | 0.0 | 2.0 | 0.00 | 0.00 | 0.00 | 76 | 1018.5 |
| 20260508024540 | 66 | 0 | 0.0 | 0.0 | 0.00 | 0.00 | 0.00 | 75 | 1018.4 |
| 20260508024034 | 66 | 0 | 0.0 | 0.0 | 0.00 | 0.00 | 0.00 | 75 | 1018.3 |
| 20260508023535 | 66 | 0 | 0.0 | 1.0 | 0.00 | 0.00 | 0.00 | 74 | 1018.3 |
| 20260508023047 | 66 | 0 | 0.0 | 3.0 | 0.00 | 0.00 | 0.00 | 74 | 1018.3 |
| 20260508022534 | 66 | 0 | 0.0 | 3.0 | 0.00 | 0.00 | 0.00 | 74 | 1018.3 |
| 20260508022035 | 66 | 0 | 0.0 | 2.0 | 0.00 | 0.00 | 0.00 | 74 | 1018.1 |
| 20260508021542 | 67 | 0 | 0.0 | 2.0 | 0.00 | 0.00 | 0.00 | 73 | 1018.2 |
| 20260508021035 | 67 | 0 | 0.0 | 2.0 | 0.00 | 0.00 | 0.00 | 73 | 1018.2 |
| 20260508020534 | 67 | 0 | 0.0 | 3.0 | 0.00 | 0.00 | 0.00 | 73 | 1018.1 |
| 20260508020041 | 67 | 0 | 0.0 | 6.0 | 0.00 | 0.00 | 0.00 | 73 | 1017.9 |
| 20260508015534 | 67 | 0 | 0.0 | 6.0 | 0.00 | 0.00 | 0.00 | 73 | 1017.9 |
| 20260508015034 | 67 | 78 | 0.0 | 8.0 | 0.00 | 0.00 | 0.00 | 72 | 1017.5 |
| 20260508014540 | 67 | 52 | 2.0 | 8.0 | 0.00 | 0.00 | 0.00 | 72 | 1017.2 |
| 20260508014037 | 67 | 101 | 3.0 | 8.0 | 0.00 | 0.00 | 0.00 | 72 | 1016.9 |
| 20260508013535 | 67 | 97 | 3.0 | 6.0 | 0.00 | 0.00 | 0.00 | 72 | 1017.1 |
| 20260508013039 | 67 | 101 | 1.0 | 10.0 | 0.00 | 0.00 | 0.00 | 72 | 1017.1 |
| 20260508012534 | 67 | 84 | 1.0 | 10.0 | 0.00 | 0.00 | 0.00 | 71 | 1017.1 |
| 20260508012034 | 67 | 65 | 2.0 | 10.0 | 0.00 | 0.00 | 0.00 | 71 | 1016.7 |
| 20260508011554 | 67 | 59 | 3.0 | 10.0 | 0.00 | 0.00 | 0.00 | 71 | 1016.5 |
| 20260508011035 | 67 | 84 | 4.0 | 10.0 | 0.00 | 0.00 | 0.00 | 71 | 1016.6 |
| 20260508010534 | 67 | 81 | 5.0 | 10.0 | 0.00 | 0.00 | 0.00 | 70 | 1016.7 |
| 20260508010050 | 67 | 78 | 4.0 | 10.0 | 0.00 | 0.00 | 0.00 | 70 | 1016.6 |
| 20260508005536 | 68 | 95 | 3.0 | 10.0 | 0.00 | 0.00 | 0.00 | 70 | 1016.8 |
| 20260508005034 | 68 | 82 | 5.0 | 11.0 | 0.00 | 0.00 | 0.00 | 69 | 1017.0 |
| 20260508004542 | 68 | 54 | 3.0 | 11.0 | 0.00 | 0.00 | 0.00 | 70 | 1017.4 |
| 20260508004035 | 68 | 61 | 3.0 | 11.0 | 0.00 | 0.00 | 0.00 | 69 | 1017.4 |
| 20260508003535 | 68 | 28 | 2.0 | 7.0 | 0.00 | 0.00 | 0.00 | 69 | 1017.6 |
| 20260508003044 | 68 | 55 | 3.0 | 7.0 | 0.00 | 0.00 | 0.00 | 68 | 1017.7 |
| 20260508002534 | 68 | 120 | 1.0 | 10.0 | 0.00 | 0.00 | 0.00 | 69 | 1017.6 |
| 20260508002034 | 68 | 73 | 2.0 | 10.0 | 0.00 | 0.00 | 0.00 | 69 | 1017.9 |
| 20260508001543 | 68 | 74 | 2.0 | 8.0 | 0.00 | 0.00 | 0.00 | 68 | 1017.8 |
| 20260508001034 | 68 | 73 | 1.0 | 6.0 | 0.00 | 0.00 | 0.00 | 68 | 1018.0 |
| 20260508000534 | 68 | 54 | 1.0 | 9.0 | 0.00 | 0.00 | 0.00 | 68 | 1018.4 |
| 20260508000048 | 68 | 360 | 3.0 | 10.0 | 0.00 | 0.00 | 0.00 | 68 | 1018.5 |
| 20260507235534 | 68 | 5 | 2.0 | 13.0 | 0.00 | 0.00 | 0.00 | 68 | 1018.4 |
| 20260507235034 | 69 | 278 | 3.0 | 13.0 | 0.00 | 0.00 | 0.00 | 68 | 1018.2 |
| 20260507234542 | 69 | 26 | 2.0 | 10.0 | 0.00 | 0.00 | 0.00 | 68 | 1018.4 |
| 20260507234034 | 69 | 10 | 3.0 | 10.0 | 0.00 | 0.00 | 0.00 | 67 | 1018.4 |